• In Hungary
  • List of Countries
  • For 7 days
  • Water Temperature
  • Satellite Maps
  • Weather Map
  • News
  • Weather Widgets
  • user-avatar
    Login

    Hourly Weather Kollo

    Today, 24 November, Friday

    Time Temperature Precipitation Wind Pressure Humidity
    00:00 +28°C° 0 mm 3 mps 741 mmHg 12%
    01:00 +27°C° 0 mm 3 mps 741 mmHg 12%
    02:00 +27°C° 0 mm 4 mps 741 mmHg 12%
    03:00 +26°C° 0 mm 4 mps 741 mmHg 12%
    04:00 +25°C° 0 mm 4 mps 741 mmHg 13%
    05:00 +25°C° 0 mm 4 mps 741 mmHg 14%
    06:00 +24°C° 0 mm 3 mps 741 mmHg 14%
    07:00 +27°C° 0 mm 4 mps 741 mmHg 13%
    08:00 +29°C° 0 mm 5 mps 742 mmHg 12%
    09:00 +32°C° 0 mm 6 mps 742 mmHg 10%
    10:00 +34°C° 0 mm 6 mps 742 mmHg 9%
    11:00 +36°C° 0 mm 5 mps 742 mmHg 9%
    12:00 +39°C° 0 mm 5 mps 741 mmHg 8%
    13:00 +40°C° 0 mm 5 mps 741 mmHg 7%
    14:00 +40°C° 0 mm 5 mps 740 mmHg 7%
    15:00 +40°C° 0 mm 5 mps 739 mmHg 7%
    16:00 +37°C° 0 mm 5 mps 739 mmHg 8%
    17:00 +35°C° 0 mm 4 mps 739 mmHg 9%
    18:00 +33°C° 0 mm 4 mps 739 mmHg 10%
    19:00 +32°C° 0 mm 4 mps 740 mmHg 11%
    20:00 +30°C° 0 mm 4 mps 741 mmHg 12%
    21:00 +29°C° 0 mm 4 mps 741 mmHg 12%
    22:00 +29°C° 0 mm 4 mps 741 mmHg 13%
    23:00 +28°C° 0 mm 4 mps 741 mmHg 13%

    Tomorrow, 25 November, Saturday

    Time Temperature Precipitation Wind Pressure Humidity
    00:00 +28°C° 0 mm 4 mps 741 mmHg 14%
    01:00 +27°C° 0 mm 4 mps 741 mmHg 14%
    02:00 +27°C° 0 mm 4 mps 741 mmHg 15%
    03:00 +26°C° 0 mm 4 mps 740 mmHg 16%
    04:00 +26°C° 0 mm 4 mps 741 mmHg 16%
    05:00 +25°C° 0 mm 4 mps 741 mmHg 17%
    06:00 +25°C° 0 mm 4 mps 741 mmHg 17%
    07:00 +27°C° 0 mm 5 mps 742 mmHg 15%
    08:00 +30°C° 0 mm 6 mps 742 mmHg 13%
    09:00 +33°C° 0 mm 7 mps 743 mmHg 11%
    10:00 +35°C° 0 mm 7 mps 742 mmHg 10%
    11:00 +38°C° 0 mm 6 mps 742 mmHg 9%
    12:00 +40°C° 0 mm 6 mps 741 mmHg 8%
    13:00 +40°C° 0 mm 6 mps 741 mmHg 8%
    14:00 +41°C° 0 mm 6 mps 740 mmHg 8%
    15:00 +41°C° 0 mm 5 mps 739 mmHg 8%
    16:00 +39°C° 0 mm 5 mps 740 mmHg 9%
    17:00 +36°C° 0 mm 4 mps 740 mmHg 10%
    18:00 +33°C° 0 mm 3 mps 740 mmHg 12%
    19:00 +33°C° 0 mm 4 mps 741 mmHg 12%
    20:00 +32°C° 0 mm 4 mps 741 mmHg 13%
    21:00 +30°C° 0 mm 4 mps 742 mmHg 14%
    22:00 +29°C° 0 mm 4 mps 742 mmHg 14%
    23:00 +29°C° 0 mm 4 mps 742 mmHg 15%

    Day after tomorrow, 26 November, Sunday

    Time Temperature Precipitation Wind Pressure Humidity
    00:00 +28°C° 0 mm 4 mps 742 mmHg 15%
    01:00 +28°C° 0 mm 4 mps 741 mmHg 16%
    02:00 +27°C° 0 mm 4 mps 741 mmHg 16%
    03:00 +26°C° 0 mm 4 mps 741 mmHg 17%
    04:00 +26°C° 0 mm 4 mps 741 mmHg 17%
    05:00 +25°C° 0 mm 4 mps 741 mmHg 18%
    06:00 +25°C° 0 mm 4 mps 742 mmHg 18%
    07:00 +28°C° 0 mm 5 mps 742 mmHg 16%
    08:00 +30°C° 0 mm 6 mps 743 mmHg 14%
    09:00 +34°C° 0 mm 7 mps 744 mmHg 11%
    10:00 +36°C° 0 mm 7 mps 743 mmHg 10%
    11:00 +39°C° 0 mm 7 mps 743 mmHg 9%
    12:00 +41°C° 0 mm 7 mps 742 mmHg 8%
    13:00 +41°C° 0 mm 7 mps 741 mmHg 8%
    14:00 +41°C° 0 mm 7 mps 741 mmHg 8%
    15:00 +41°C° 0 mm 7 mps 740 mmHg 8%
    16:00 +39°C° 0 mm 6 mps 740 mmHg 9%
    17:00 +36°C° 0 mm 5 mps 740 mmHg 11%
    18:00 +34°C° 0 mm 4 mps 741 mmHg 12%
    19:00 +33°C° 0 mm 4 mps 741 mmHg 13%
    20:00 +32°C° 0 mm 4 mps 742 mmHg 13%
    21:00 +30°C° 0 mm 4 mps 742 mmHg 14%
    22:00 +29°C° 0 mm 4 mps 742 mmHg 14%
    23:00 +28°C° 0 mm 4 mps 742 mmHg 15%

    27 November, Monday

    Time Temperature Precipitation Wind Pressure Humidity
    00:00 +28°C° 0 mm 4 mps 742 mmHg 15%
    01:00 +27°C° 0 mm 4 mps 742 mmHg 16%
    02:00 +26°C° 0 mm 4 mps 741 mmHg 16%
    03:00 +26°C° 0 mm 4 mps 741 mmHg 17%
    04:00 +25°C° 0 mm 4 mps 741 mmHg 17%
    05:00 +25°C° 0 mm 4 mps 742 mmHg 17%
    06:00 +23°C° 0 mm 4 mps 742 mmHg 18%
    07:00 +27°C° 0 mm 5 mps 743 mmHg 15%
    08:00 +30°C° 0 mm 7 mps 743 mmHg 13%
    09:00 +33°C° 0 mm 8 mps 744 mmHg 11%
    10:00 +35°C° 0 mm 7 mps 743 mmHg 10%
    11:00 +38°C° 0 mm 7 mps 743 mmHg 9%
    12:00 +39°C° 0 mm 7 mps 742 mmHg 8%
    13:00 +39°C° 0 mm 6 mps 741 mmHg 8%
    14:00 +39°C° 0 mm 6 mps 741 mmHg 7%
    15:00 +39°C° 0 mm 6 mps 740 mmHg 7%
    16:00 +36°C° 0 mm 5 mps 740 mmHg 8%
    17:00 +34°C° 0 mm 4 mps 740 mmHg 10%
    18:00 +32°C° 0 mm 4 mps 741 mmHg 11%
    19:00 +30°C° 0 mm 4 mps 741 mmHg 11%
    20:00 +29°C° 0 mm 4 mps 742 mmHg 12%
    21:00 +28°C° 0 mm 4 mps 742 mmHg 13%
    22:00 +28°C° 0 mm 4 mps 742 mmHg 13%
    23:00 +27°C° 0 mm 4 mps 742 mmHg 14%

    28 November, Tuesday

    Time Temperature Precipitation Wind Pressure Humidity
    00:00 +26°C° 0 mm 4 mps 742 mmHg 15%
    01:00 +26°C° 0 mm 4 mps 741 mmHg 15%
    02:00 +25°C° 0 mm 4 mps 741 mmHg 16%
    03:00 +23°C° 0 mm 4 mps 741 mmHg 16%
    04:00 +23°C° 0 mm 4 mps 741 mmHg 17%
    05:00 +22°C° 0 mm 4 mps 741 mmHg 17%
    06:00 +22°C° 0 mm 4 mps 742 mmHg 18%
    07:00 +26°C° 0 mm 5 mps 742 mmHg 15%
    08:00 +28°C° 0 mm 6 mps 743 mmHg 13%
    09:00 +32°C° 0 mm 7 mps 743 mmHg 11%
    10:00 +34°C° 0 mm 6 mps 743 mmHg 10%
    11:00 +35°C° 0 mm 6 mps 742 mmHg 9%
    12:00 +38°C° 0 mm 6 mps 742 mmHg 8%
    13:00 +37°C° 0 mm 5 mps 741 mmHg 8%
    14:00 +37°C° 0 mm 4 mps 740 mmHg 7%
    15:00 +38°C° 0 mm 3 mps 739 mmHg 7%
    16:00 +35°C° 0 mm 3 mps 740 mmHg 8%
    17:00 +33°C° 0 mm 3 mps 740 mmHg 9%
    18:00 +30°C° 0 mm 3 mps 740 mmHg 11%
    19:00 +29°C° 0 mm 3 mps 741 mmHg 11%
    20:00 +29°C° 0 mm 3 mps 741 mmHg 11%
    21:00 +28°C° 0 mm 4 mps 741 mmHg 11%
    22:00 +27°C° 0 mm 4 mps 741 mmHg 12%
    23:00 +27°C° 0 mm 4 mps 741 mmHg 12%

    29 November, Wednesday

    Time Temperature Precipitation Wind Pressure Humidity
    00:00 +26°C° 0 mm 4 mps 741 mmHg 12%
    01:00 +26°C° 0 mm 4 mps 741 mmHg 13%
    02:00 +25°C° 0 mm 4 mps 740 mmHg 13%
    03:00 +25°C° 0 mm 4 mps 740 mmHg 13%
    04:00 +23°C° 0 mm 4 mps 741 mmHg 14%
    05:00 +22°C° 0 mm 4 mps 741 mmHg 15%
    06:00 +22°C° 0 mm 3 mps 741 mmHg 16%
    07:00 +25°C° 0 mm 4 mps 742 mmHg 15%
    08:00 +28°C° 0 mm 5 mps 742 mmHg 13%
    09:00 +32°C° 0 mm 6 mps 743 mmHg 11%
    10:00 +34°C° 0 mm 6 mps 742 mmHg 10%
    11:00 +36°C° 0 mm 6 mps 742 mmHg 9%
    12:00 +39°C° 0 mm 6 mps 741 mmHg 8%
    13:00 +39°C° 0 mm 5 mps 740 mmHg 8%
    14:00 +38°C° 0 mm 4 mps 740 mmHg 8%
    15:00 +38°C° 0 mm 3 mps 739 mmHg 8%
    16:00 +36°C° 0 mm 3 mps 739 mmHg 9%
    17:00 +34°C° 0 mm 3 mps 740 mmHg 10%
    18:00 +30°C° 0 mm 3 mps 740 mmHg 11%
    19:00 +30°C° 0 mm 3 mps 740 mmHg 12%
    20:00 +29°C° 0 mm 3 mps 741 mmHg 12%
    21:00 +28°C° 0 mm 4 mps 741 mmHg 13%
    22:00 +28°C° 0 mm 4 mps 741 mmHg 13%
    23:00 +27°C° 0 mm 4 mps 741 mmHg 14%
    Show more